This demonstration page uses our WeatherBlox Daily Observations layout. Learn more.

Left ArrowRight Arrow

Hourly Observations for October 21, 2015

Temp ( °F °C ) Dew Point ( °F °C ) Humidity (%) Winds ( mph kmh ) Pressure ( in mb ) Visibility ( mi km ) Precip ( " mm )
12:51 am 00:51 Mostly Cloudy 57 13.9 52 11.1 83 83 WNW 12 19 29.77 1008 10 16 N/A
1:41 am 01:41 Cloudy with Thunderstorms 56 13.3 53 11.7 90 90 NNW 6 9 29.85 1011 9 14 N/A
1:51 am 01:51 Cloudy with Thunderstorms 56 13.3 53 11.7 90 90 W 8 13 29.78 1009 10 16 0.01 0.25
2:13 am 02:13 Cloudy with Nearby Thunderstorms 56 13.3 53 11.7 90 90 NW 14 22 29.80 1009 10 16 0.02 0.51
2:20 am 02:20 Mostly Cloudy with Nearby Thunderstorms 56 13.3 54 12.2 93 93 NW 16 26 29.80 1009 10 16 0.02 0.51
2:36 am 02:36 Mostly Cloudy with Strong Thunderstorms 55 12.8 54 12.2 96 96 W 8 13 29.88 1012 3 4 0.09 2.29
2:49 am 02:49 Mostly Cloudy with Thunderstorms 54 12 52 11 94 94 NNW 9 15 29.85 1011 10 16 0.20 5.08
2:51 am 02:51 Partly Cloudy with Thunderstorms 53 11.7 52 11.1 96 96 NNW 9 15 29.78 1009 10 16 0.20 5.08
3:00 am 03:00 Partly Cloudy with Nearby Thunderstorms 54 12.2 53 11.7 97 97 NE 10 17 29.85 1011 10 16 N/A
3:51 am 03:51 Partly Cloudy 53 11.7 52 11.1 96 96 SW 3 6 29.78 1008 10 16 N/A
4:51 am 04:51 Clear 54 12.2 51 10.6 90 90 ESE 6 9 29.79 1009 10 16 N/A
5:51 am 05:51 Mostly Clear 53 11.7 51 10.6 93 93 SE 6 9 29.80 1009 10 16 N/A
6:28 am 06:28 Mostly Cloudy with Strong Thunderstorms 54 12.2 52 11.1 93 93 SSE 10 17 29.88 1012 3 5 0.05 1.27
6:43 am 06:43 Mostly Cloudy 55 12.8 52 11.1 90 90 SE 13 20 29.88 1012 10 16 0.07 1.78
6:51 am 06:51 Partly Cloudy 56 13.3 52 11.1 87 87 ESE 10 17 29.80 1009 10 16 0.07 1.78
7:29 am 07:29 Mostly Cloudy with Nearby Thunderstorms 56 13.3 53 11.7 90 90 SSE 14 22 29.88 1012 10 16 N/A
7:39 am 07:39 Mostly Cloudy with Thunderstorms 56 13.3 53 11.7 90 90 S 17 28 29.91 1013 10 16 N/A
7:51 am 07:51 Cloudy with Thunderstorms 55 12.8 53 11.7 93 93 SSW 9 15 29.87 1011 10 16 N/A
8:07 am 08:07 Cloudy with Nearby Thunderstorms 56 13.3 53 11.7 90 90 ESE 3 6 29.91 1013 10 16 0.01 0.25
8:16 am 08:16 Cloudy with Light Rain 56 13.3 53 11.7 90 90 VRB 3 6 29.91 1013 5 8 0.01 0.25
8:26 am 08:26 Cloudy with Light Rain 56 13.3 52 11.1 87 87 VRB 6 9 29.91 1013 3 4 0.06 1.52
8:33 am 08:33 Cloudy with Nearby Thunderstorms 57 13.9 53 11.7 87 87 E 7 11 29.88 1012 10 16 0.06 1.52
8:51 am 08:51 Cloudy 59 15 53 11.7 81 81 SSW 3 6 29.87 1011 10 16 0.07 1.78
9:51 am 09:51 Mostly Cloudy 60 15.6 53 11.7 78 78 W 5 7 29.88 1012 10 16 N/A

Powered by AerisWeather